Regional Weather Roundup
Issued by NWS Newport/Morehead, NC

Current Version | Previous Version | Graphics & Text | Print | Product List | Glossary Off
Versions: 1 2 3 4 5 6 7 8 9 10 11 12 13 14 15 16 17 18 19 20 21 22 23 24 25 26 27 28 29 30 31 32 33 34 35 36 37 38 39 40 41 42 43 44 45 46 47 48 49 50

000
ASUS42 KMHX 230313
RWRMHX
WEATHER ROUNDUP FOR EASTERN NORTH CAROLINA
NATIONAL WEATHER SERVICE NEWPORT/MOREHEAD CITY NC
1100 PM EDT SUN APR 22 2018

NOTE: "FAIR" INDICATES FEW OR NO CLOUDS BELOW 12,000 FEET
WITH NO SIGNIFICANT WEATHER AND/OR OBSTRUCTIONS TO VISIBILITY

NCZ015>017-031-032-045>047-102-103-230400-
NORTH COAST

CITY           SKY/WX    TMP DP  RH WIND       PRES   REMARKS
EDENTON        FAIR      54  48  80 SE6       30.40S
ELIZABETH CITY FAIR      52  46  80 E5        30.40S
KITTY HAWK     FAIR      51  46  81 CALM      30.39R
MANTEO         FAIR      53  47  79 E8        30.40S

$$

NCZ045>047-081-094-103-104-230400-
CENTRAL COAST

CITY           SKY/WX    TMP DP  RH WIND       PRES   REMARKS
FRISCO         FAIR      56  52  86 NE7       30.37S

$$

NCZ095-097-098-100-101-230400-
SOUTHERN COAST

CITY           SKY/WX    TMP DP  RH WIND       PRES   REMARKS
BEAUFORT       FAIR      56  52  86 NE6       30.36R
CEDAR ISLAND   NOT AVBL
JACKSONVILLE   FAIR      59  49  69 E8        30.34F
PINEY ISLAND   NOT AVBL
WILMINGTON     FAIR      59  52  77 E7        30.33S


$$

NCZ011>013-027>030-043-044-078>080-089-090>093-098-230400-
COASTAL PLAIN

CITY           SKY/WX    TMP DP  RH WIND       PRES   REMARKS
AHOSKIE        FAIR      52  42  69 SE5       30.38F
CLINTON        FAIR      58  39  49 E3        30.35S
ELIZABETHTOWN  FAIR      58  42  54 MISG      30.32F
GOLDSBORO      FAIR      56  36  48 E8        30.34R
GREENVILLE     FAIR      54  41  62 CALM      30.38S
HAVELOCK       NOT AVBL
KENANSVILLE    FAIR      55  37  50 CALM      30.35S
KINSTON        FAIR      56  42  59 E5        30.38S
NEW BERN       FAIR      55  50  83 NE6       30.38R
RICHLANDS      FAIR      54  42  64 NE6       30.35S
ROCKY MOUNT    FAIR      57  32  38 VRB5      30.37S
WASHINGTON     FAIR      53  44  73 E6        30.39S
WHITEVILLE     MOCLDY    59  47  64 E7        30.30F

$$

AMZ130-135-150-152-154-156-158-170-250-252-270-ANZ085-086-088-633-658-670-230400-
MARINE OBSERVATIONS

STATION/POSITION TIME  TEMP    WIND        PRES    WAVE   SWELL
                       AIR SEA DIR/SP/G            HT/PER HT/PER
                 (UTC) (F)     (DEG/KT/KT) (MB)    (FT/S) (FT/S)
CHESAPEAKE LIGHT NOT AVBL
64 E VA BEACH    0250   52 50   90/  8/  8 1029.9    2/ 8   2/ 8
DUCK             0236   52 54   80/ 10/ 13 1028.9
2 E DUCK         0300      53                N/A     2/14
OREGON INLET     0236   54 58   50/  9/ 14 1029.0
13E OREGON INLT  0248      51                N/A     2/15   2/15
HATTERAS CG      0236   57 62   60/  7/ 10 1028.3
DIAMOND BUOY     0300   65 74  110/ 14/ 17 1028.6
CAPE LOOKOUT     0200          110/ 11/ 12 1027.6
BEAUFORT LAB     0236   58 64   10/  3/  5 1027.9
30 SE NEW RVR IN 0208   66 65  130/ 12/ 17 1026.9
30 SE NEW RVR IN 0300      65                N/A     3/ 4
27 SE WRIGHTSVLE 0208   65 65   80/ 14/ 19 1026.9
5 SE WRIGHTSVLE  0208   61 60   80/ 10/ 14 1026.7
225 S CAPE HAT   0300   67 72   90/ 16/ 19 1025.4
41 SE CHARLESTON 0300   69 67  100/ 17/ 21 1023.6

$$



USA.gov is the U.S. government's official web portal to all federal, state and local government web resources and services.